Location: Spruce Knob
(38.6995°N, 79.5330°W)
Time: 22:51:46
(UTC-04:00)

A-11 Canister half - Pass Details

Date: 04 February 2022
Orbit: 1513 x 1686 km, 47.2° (Epoch: 24 May)

Event Time Altitude Azimuth Distance (km) Brightness Sun altitude
Rises 18:30:09 0° 293° (WNW) 4,751 12.5 -9.6°
Reaches altitude 10° 18:33:20 10° 298° (WNW) 3,744 11.8 -10.2°
Maximum altitude 18:42:39 60° 17° (NNE) 1,708 9.1 -11.9°
Enters shadow 18:50:25 15° 94° (E) 3,261 10.1 -13.4°
Drops below altitude 10° 18:51:45 10° 97° (E) 3,667 - -13.7°
Sets 18:54:50 0° 101° (E) 4,648 - -14.3°
